Fairbanks, AK

6:39 AM AKDT on April 23, 2017 (GMT -0800)
Fairbanks International

Weather History for PAFA - October, 2010

Change the Weather History Date:

Tuesday, October 19, 2010

  Actual Average Record
Temperature  
Mean Temperature 23 °F 22 °F  
Max Temperature 29 °F 29 °F 58 °F (1938)
Min Temperature 17 °F 14 °F -11 °F (1965)
Degree Days  
Heating Degree Days 42 43  
Month to date heating degree days 635 677  
Since 1 July heating degree days 1434 1671  
Cooling Degree Days 0 0  
Month to date cooling degree days 0 0  
Year to date cooling degree days 66 61  
Moisture  
Dew Point 24 °F    
Average Humidity 93    
Maximum Humidity 100    
Minimum Humidity 85    
Precipitation  
Precipitation T in 0.02 in 0.36 in (2004)
Month to date precipitation 0.28 0.53  
Year to date precipitation 8.20 9.20  
Snow  
Snow T in 0.30 in 5.80 in (1989)
Month to date snowfall 5.1 5.7  
Since 1 July snowfall 5.1 7.5  
Since 1 September snowfall 5.1 7.5  
Snow Depth 3.00 in    
Sea Level Pressure  
Sea Level Pressure 29.67 in    
Wind  
Wind Speed 1 mph (NE)    
Max Wind Speed 5 mph    
Max Gust Speed -    
Visibility 5 miles    
Events Snow    
T = Trace of Precipitation, MM = Missing Value Source: NWS Daily Summary

Daily Weather History Graph

Daily Weather History Graph

Search for Another Location

Airport or City:

Trip Planner

Search our weather history database for the weather conditions in past years. The results will help you decide how hot, cold, wet, or windy it might be!

Date:

Astronomy

Oct. 19, 2010 Rise Set
Actual Time 8:56 AM AKDT 6:14 PM AKDT
Civil Twilight 8:06 AM AKDT 7:05 PM AKDT
Nautical Twilight 7:09 AM AKDT 8:01 PM AKDT
Astronomical Twilight 6:12 AM AKDT 8:58 PM AKDT
Moon 5:10 PM AKDT (10/19) 4:55 AM AKDT (10/19)
Length of Visible Light 10h 59m
Length of Day
9h 17m
Waxing Gibbous, 90% of the Moon is Illuminated
Oct 19
Waxing Gibbous
Oct 22
Full
Oct 30
Last Quarter
Nov 5
New
Nov 13
First Quarter

Hourly Weather History & Observations

Time (AKDT) Temp. Windchill Dew Point Humidity Pressure Visibility Wind Dir Wind Speed Gust Speed Precip Events Conditions
12:04 AM 26.6 °F 22.6 °F 24.8 °F 93% 29.48 in 3.0 mi North 3.5 mph - 0.00 in Snow Light Snow
12:53 AM 26.1 °F 21.9 °F 24.1 °F 92% 29.52 in 4.0 mi North 3.5 mph - 0.01 in Snow Light Snow
1:53 AM 26.1 °F 21.9 °F 24.1 °F 92% 29.54 in 6.0 mi North 3.5 mph - 0.00 in Snow Light Snow
2:53 AM 26.1 °F - 24.1 °F 92% 29.56 in 9.0 mi Calm Calm - 0.00 in Snow Light Snow
3:53 AM 24.1 °F - 23.0 °F 96% 29.57 in 10.0 mi Calm Calm - 0.00 in   Overcast
4:53 AM 24.1 °F - 23.0 °F 96% 29.60 in 10.0 mi Calm Calm - N/A   Overcast
5:53 AM 24.1 °F - 23.0 °F 96% 29.61 in 7.0 mi Calm Calm - 0.00 in Snow Light Snow
6:40 AM 24.8 °F - 23.0 °F 93% 29.60 in 2.0 mi Calm Calm - 0.00 in Snow Light Snow
6:53 AM 24.1 °F 19.7 °F 23.0 °F 96% 29.63 in 2.0 mi SSE 3.5 mph - 0.00 in   Overcast
7:53 AM 24.1 °F - 23.0 °F 96% 29.65 in 2.0 mi Calm Calm - N/A   Overcast
8:38 AM 24.8 °F - 23.0 °F 93% 29.63 in 1.5 mi Calm Calm - N/A   Mist
8:53 AM 24.1 °F - 23.0 °F 96% 29.66 in 1.5 mi Calm Calm - N/A   Mist
9:53 AM 24.1 °F 19.7 °F 23.0 °F 96% 29.69 in 1.5 mi South 3.5 mph - N/A   Mist
10:04 AM 24.8 °F - 24.8 °F 100% 29.66 in 0.8 mi Calm Calm - N/A   Mist
11:33 AM 24.8 °F - 24.8 °F 100% 29.68 in 1.0 mi Calm Calm - N/A   Overcast
11:53 AM 26.1 °F - 24.1 °F 92% 29.71 in 1.5 mi Calm Calm - N/A   Overcast
12:12 PM 26.6 °F - 24.8 °F 93% 29.69 in 2.0 mi Calm Calm - N/A   Overcast
12:53 PM 26.1 °F - 24.1 °F 92% 29.73 in 2.0 mi Calm Calm - N/A   Overcast
1:53 PM 28.0 °F - 25.0 °F 88% 29.73 in 2.0 mi Calm Calm - 0.00 in Snow Light Snow
2:23 PM 28.4 °F - 24.8 °F 86% 29.71 in 3.0 mi Calm Calm - 0.00 in   Overcast
2:53 PM 28.9 °F - 25.0 °F 85% 29.74 in 3.0 mi Calm Calm - 0.00 in   Overcast
3:53 PM 28.9 °F - 25.0 °F 85% 29.75 in 5.0 mi Calm Calm - N/A   Overcast
4:53 PM 28.9 °F - 25.0 °F 85% 29.75 in 7.0 mi Calm Calm - N/A   Mostly Cloudy
5:53 PM 27.0 °F - 25.0 °F 92% 29.75 in 10.0 mi Calm Calm - N/A   Mostly Cloudy
6:53 PM 27.0 °F - 25.0 °F 92% 29.75 in 10.0 mi Calm Calm - N/A   Mostly Cloudy
7:53 PM 27.0 °F - 25.0 °F 92% 29.75 in 10.0 mi Calm Calm - N/A   Mostly Cloudy
8:53 PM 21.9 °F - 21.0 °F 96% 29.75 in 10.0 mi Calm Calm - N/A   Mostly Cloudy
9:53 PM 18.0 °F 11.1 °F 18.0 °F 100% 29.75 in 10.0 mi NE 4.6 mph - N/A   Scattered Clouds
10:53 PM 21.0 °F - 19.9 °F 96% 29.75 in 10.0 mi Calm Calm - N/A   Mostly Cloudy
11:53 PM 21.9 °F 17.2 °F 19.9 °F 92% 29.75 in 10.0 mi ENE 3.5 mph - N/A   Mostly Cloudy